Tracking 19795 objects as of 17-Jul-2019
HD Live streaming from Space Station
objects crossing your sky now

FENGYUN 1C DEB

Track FENGYUN 1C DEB now!
10-day predictions


NORAD ID: 35129
Int'l Code: 1999-025DLH
Perigee: 779.9 km
Apogee: 978.0 km
Inclination: 98.3 °
Period: 102.4 minutes
Semi major axis: 7249 km
RCS: 0.0081 m2 (small)
Launch date: May 10, 1999
Source: People's Republic of China (PRC)
Launch site: Taiyaun Space Center, China (TSC)

Note: This is SATELLITE DEBRIS
aabbcc
Your satellite tracking list
Your tracking list is empty




NASA's NSSDC Master Catalog

Two Line Element Set (TLE):
1 35129U 99025DLH 19197.18200113  .00000413  00000-0  25185-3 0  9990
2 35129  98.2807 174.5304 0136618 208.4742 150.8917 14.06378880575229
Source of the keplerian elements: AFSPC